Regional Weather Roundup
Issued by NWS

Home | Current Version | Previous Version | Graphics & Text | Print | Product List | Glossary On
Versions: 1 2 3 4 5 6 7 8 9 10 11 12 13 14 15 16 17 18 19 20 21 22 23 24 25 26 27
000
ASUS45 KBOU 271007
RWRCO

WEATHER ROUNDUP FOR COLORADO
NATIONAL WEATHER SERVICE DENVER/BOULDER CO
400 AM MDT MON MAR 27 2017

NOTE: "FAIR" INDICATES FEW OR NO CLOUDS BELOW 12000 FEET WITH NO
SIGNIFICANT WEATHER AND/OR OBSTRUCTIONS TO VISIBILITY.

COZ001>005-013-030-031-271100-
...NORTHWEST COLORADO...

CITY           SKY/WX    TMP DP  RH WIND       PRES   REMARKS
CRAIG          CLOUDY    30  25  81 CALM      29.97F
HAYDEN         MOCLDY    30  23  74 E9        29.96F WCI  22
MEEKER         CLOUDY    35  27  72 E5        29.96F WCI  31
MOUNT WERNER   NOT AVBL
STEAMBOAT SPGS FAIR      30  27  89 CALM      29.97S
WALDEN         NOT AVBL
$$

COZ006>008-011-271100-
...WEST CENTRAL VALLEYS...

CITY           SKY/WX    TMP DP  RH WIND       PRES   REMARKS
GRAND JUNCTION CLOUDY    47  30  51 E10       29.93F
MONTROSE       FAIR      40  30  67 E13       29.98F
EAGLE          FAIR      29  23  78 CALM      30.01
RIFLE          CLOUDY    37  28  70 CALM      29.96F
DELTA          CLOUDY    40  29  67 NE7       29.96F
NUCLA          FAIR      36  30  80 E10       30.00F
$$

COZ017>023-064>068-271100-
...SOUTHWEST COLORADO...

CITY           SKY/WX    TMP DP  RH WIND       PRES   REMARKS
DURANGO        FAIR      31  24  75 N5        30.01F WCI  26
CORTEZ         FAIR      29  27  92 CALM      29.99F
PAGOSA SPRINGS FAIR      31  30  97 CALM      30.04F
TELLURIDE      NOT AVBL
WOLF CREEK PAS FOG       21  21 100 S12G18    30.13F VSB 1/2 WCI   9
$$

COZ009-010-012-014-032>034-037-058>063-271100-
...CENTRAL COLORADO...

CITY           SKY/WX    TMP DP  RH WIND       PRES   REMARKS
ASPEN          MOCLDY    32  20  61 SW6       29.99F WCI  26
BUENA VISTA    FAIR      25  20  81 CALM      30.00S
COPPER MTN     FAIR      25  14  63 MISG      30.05F
BERTHOUD PASS  FAIR      16   5  62 NW28G36   30.01S WCI  -4
COTTONWOOD PAS FAIR      34  19  55 W8        30.02F WCI  27
GUNNISON       FAIR      26  23  88 CALM      30.04F
KREMMLING      FAIR      28  27  93 CALM      30.01F
LEADVILLE      FAIR      24  14  65 NE10      30.01F WCI  14
MONARCH PASS   MOCLDY    21  19  93 W30       30.15S FOG     WCI   3
SALIDA         FAIR      32  29  92 CALM      30.07F
SUNLIGHT       CLOUDY    25  21  86 SW12G18   30.07F WCI  14
WILKERSON PASS MOCLDY    23  19  86 W6        30.06F WCI  16
$$

COZ069>075-271100-
...SAN LUIS VALLEY/SANGRE DE CRISTO MOUNTAINS...

CITY           SKY/WX    TMP DP  RH WIND       PRES   REMARKS
ALAMOSA        FAIR      28  25  88 SE3       30.01F
LA VETA PASS   NOT AVBL
SAGUACHE       FAIR      30  21  69 W5        30.02F WCI  25
$$

COZ035-036-038>040-271100-
...NORTHERN COLORADO FRONT RANGE...

CITY           SKY/WX    TMP DP  RH WIND       PRES   REMARKS
DENVER INTL AP FAIR      31  28  89 S9        29.93F WCI  23
DMNS CITY PARK   N/A     37  37  99 MISG      29.93F
AURORA         PTCLDY    35  35  99 S6        29.94F WCI  30
FRONT RANGE AP MOCLDY    36  32  87 S10       29.94F
ERIE MUNI ARPT FAIR      36  34  94 CALM      29.94F
BOULDER MUN AP MOCLDY    39  39 100 CALM      29.93F
CENTENNIAL     FAIR      35  33  92 S6        29.94F WCI  30
BROOMFIELD     FAIR      37  36  93 CALM      29.94F
FORT COLLINS   FAIR      36  34  92 S5        29.95F
LONGMONT       FOG       35  33  93 CALM      29.96F VSB 1/4
$$

COZ041-046-047-076>085-087-088-271100-
...PIKES PEAK/PALMER DIVIDE AND SOUTHERN FOOTHILLS...

CITY           SKY/WX    TMP DP  RH WIND       PRES   REMARKS
COLO. SPRINGS  FAIR      34  32  92 NE8       29.97F WCI  27
A. F. ACADEMY  MOCLDY    37  37  99 E5        29.95F
SCHRIEVER AFB  FAIR      36  35  98 NE9       29.97F
ELLICOTT         N/A    N/A N/A N/A CALM      29.96F
FALCON         FOG       36  36  99 W3        29.99F VSB 1/4
FORT CARSON    FAIR      35  35  97 NW6       29.95F WCI  30
LIMON          FAIR      31  31 100 W7        29.96S WCI  24
MONUMENT HILL  FAIR      32  32 100 S9        29.98F WCI  24
TRINIDAD       FAIR      36  33  89 SW12      29.97F
$$

COZ042>045-048>051-090-091-271100-
...NORTHEAST COLORADO...

CITY           SKY/WX    TMP DP  RH WIND       PRES   REMARKS
GREELEY ARPT   FAIR      27  25  92 N6        29.95F WCI  20
AKRON          FAIR      33  30  88 W10       29.93F WCI  25
BURLINGTON     FAIR      35  33  92 NW8       29.93F WCI  29
WRAY           FAIR     N/A N/A N/A W5        29.93F
STERLING       FAIR      30  28  93 SW5       29.93F WCI  25
HOLYOKE        FAIR      37  36  93 NW7       29.92S
FORT MORGAN    FAIR      29  28  94 W7        29.95F WCI  22
$$

COZ086-089-092>099-271100-
...SOUTHEAST COLORADO...

CITY           SKY/WX    TMP DP  RH WIND       PRES   REMARKS
PUEBLO         FAIR      34  32  92 N3        29.95F
LA JUNTA       FAIR      37  34  89 W3        29.95F
LAMAR          FAIR      28  26  92 SW8       29.94F WCI  20
SPRINGFIELD      N/A     29  28  96 W5        29.95R WCI  24
$$




USA.gov is the U.S. government's official web portal to all federal, state and local government web resources and services.